Station Historical Data
Daily Summary for March 8, 2012 Units:  Metric    English   Both
« Previous Day
Next Day »
Daily Weekly Monthly Yearly Custom
  High: Low: Average:
Temperature: 21.1 °C 6 °C 15.2 °C
Dew Point: 15.9 °C 5.3 °C 11.6 °C
Humidity: 96% 65% 80%
Wind Speed: 35.4km/h 3.2km/h 14.2km/h
Wind Gust: 43.5km/h - -
Wind- - SSE
Pressure: 1023.6 hPa 1016.1 hPa -
Precipitation: 35.05 mm    
Historical Graphs
 
 
Tabular Data for March 8, 2012
Time Temperature Dew Point Pressure Wind Wind Speed Wind Gust Humidity Rainfall Rate (Hourly) Conditions
00:00 16.8 °C 10.6 °C 1022.9 hPa SSE 16.1 km/h 17.7 km/h 67% 0 mm
00:01 16.8 °C 10.6 °C 1022.9 hPa SE 11.3 km/h 16.1 km/h 67% 0 mm
00:06 16.8 °C 10.6 °C 1022.9 hPa SSE 9.7 km/h 16.1 km/h 67% 0 mm
00:11 16.7 °C 10.6 °C 1022.9 hPa SE 14.5 km/h 14.5 km/h 67% 0 mm
00:16 16.7 °C 10.6 °C 1022.9 hPa SE 14.5 km/h 19.3 km/h 67% 0 mm
00:21 16.7 °C 10.5 °C 1022.9 hPa SSE 14.5 km/h 19.3 km/h 67% 0 mm
00:27 16.7 °C 10.5 °C 1022.9 hPa SSE 12.9 km/h 22.5 km/h 67% 0 mm
00:32 16.7 °C 10.5 °C 1022.9 hPa SE 16.1 km/h 19.3 km/h 67% 0 mm
00:37 16.7 °C 10.5 °C 1022.9 hPa SE 11.3 km/h 16.1 km/h 67% 0 mm
00:42 16.6 °C 10.6 °C 1022.9 hPa SSE 12.9 km/h 17.7 km/h 68% 0 mm
00:47 16.6 °C 10.6 °C 1022.9 hPa SE 9.7 km/h 12.9 km/h 68% 0 mm
00:52 16.5 °C 10.6 °C 1022.9 hPa SSE 9.7 km/h 19.3 km/h 68% 0 mm
00:57 16.5 °C 10.6 °C 1022.9 hPa SE 16.1 km/h 20.9 km/h 68% 0 mm
01:02 16.4 °C 10.6 °C 1022.9 hPa SSE 11.3 km/h 12.9 km/h 68% 0 mm
01:07 16.4 °C 10.4 °C 1022.9 hPa SE 11.3 km/h 16.1 km/h 68% 0 mm
01:12 16.3 °C 10.6 °C 1022.9 hPa SSE 12.9 km/h 17.7 km/h 69% 0 mm
01:17 16.3 °C 10.6 °C 1022.9 hPa SE 19.3 km/h 19.3 km/h 69% 0 mm
01:22 16.2 °C 10.6 °C 1023.2 hPa SSE 12.9 km/h 19.3 km/h 69% 0 mm
01:27 16.2 °C 10.5 °C 1023.2 hPa SSE 16.1 km/h 17.7 km/h 69% 0 mm
01:32 16.1 °C 10.4 °C 1023.2 hPa SSE 12.9 km/h 12.9 km/h 69% 0 mm
01:37 16.1 °C 10.4 °C 1023.2 hPa SE 6.4 km/h 19.3 km/h 69% 0 mm
01:43 16.1 °C 10.4 °C 1023.2 hPa SE 17.7 km/h 17.7 km/h 69% 0 mm
01:48 16.1 °C 10.4 °C 1023.2 hPa SE 12.9 km/h 16.1 km/h 69% 0 mm
01:53 16.1 °C 10.4 °C 1023.2 hPa SE 14.5 km/h 17.7 km/h 69% 0 mm
01:58 16.1 °C 10.4 °C 1023.2 hPa SSE 14.5 km/h 17.7 km/h 69% 0 mm
02:03 16 °C 10.3 °C 1023.2 hPa SE 11.3 km/h 14.5 km/h 69% 0 mm
02:08 15.9 °C 10.4 °C 1023.2 hPa SE 11.3 km/h 14.5 km/h 70% 0 mm
02:13 15.8 °C 10.4 °C 1023.2 hPa SSE 12.9 km/h 16.1 km/h 70% 0 mm
02:18 15.8 °C 10.4 °C 1023.2 hPa ESE 8 km/h 17.7 km/h 70% 0 mm
02:23 15.7 °C 10.3 °C 1022.9 hPa SE 11.3 km/h 11.3 km/h 70% 0 mm
02:28 15.7 °C 10.4 °C 1022.9 hPa SE 6.4 km/h 14.5 km/h 71% 0 mm
02:33 15.6 °C 10.4 °C 1022.9 hPa SE 9.7 km/h 9.7 km/h 71% 0 mm
02:38 15.6 °C 10.3 °C 1022.9 hPa SE 9.7 km/h 17.7 km/h 71% 0 mm
02:43 15.6 °C 10.3 °C 1022.9 hPa SE 11.3 km/h 16.1 km/h 71% 0 mm
02:48 15.5 °C 10.3 °C 1022.6 hPa SE 9.7 km/h 14.5 km/h 71% 0 mm
02:53 15.4 °C 10.4 °C 1022.6 hPa SE 8 km/h 14.5 km/h 72% 0 mm
02:58 15.4 °C 10.4 °C 1022.6 hPa SE 8 km/h 14.5 km/h 72% 0 mm
03:03 15.4 °C 10.4 °C 1022.6 hPa SE 9.7 km/h 14.5 km/h 72% 0 mm
03:08 15.3 °C 10.3 °C 1022.6 hPa SSE 9.7 km/h 14.5 km/h 72% 0 mm
03:13 15.3 °C 10.3 °C 1022.6 hPa SSE 8 km/h 16.1 km/h 72% 0 mm
03:18 15.3 °C 10.3 °C 1022.2 hPa SE 9.7 km/h 16.1 km/h 72% 0 mm
03:23 15.2 °C 10.2 °C 1022.2 hPa ESE 9.7 km/h 14.5 km/h 72% 0 mm
03:28 15.2 °C 10.2 °C 1022.2 hPa SE 9.7 km/h 14.5 km/h 72% 0 mm
03:33 15.1 °C 10.3 °C 1022.2 hPa SSE 9.7 km/h 11.3 km/h 73% 0 mm
03:38 14.9 °C 10.2 °C 1022.2 hPa SSE 8 km/h 12.9 km/h 73% 0 mm
03:43 14.9 °C 10.1 °C 1022.2 hPa SSE 11.3 km/h 12.9 km/h 73% 0 mm
03:48 14.8 °C 10.2 °C 1021.9 hPa ESE 9.7 km/h 14.5 km/h 74% 0 mm
03:53 14.8 °C 10.2 °C 1022.2 hPa SE 11.3 km/h 12.9 km/h 74% 0 mm
03:58 14.8 °C 10.2 °C 1021.9 hPa SE 12.9 km/h 14.5 km/h 74% 0 mm
04:03 14.8 °C 10.2 °C 1021.9 hPa SE 11.3 km/h 16.1 km/h 74% 0 mm
04:08 14.7 °C 10.1 °C 1021.9 hPa SE 8 km/h 16.1 km/h 74% 0 mm
04:13 14.7 °C 10.1 °C 1021.9 hPa SE 11.3 km/h 19.3 km/h 74% 0 mm
04:18 14.6 °C 10.2 °C 1021.9 hPa SE 12.9 km/h 17.7 km/h 75% 0 mm
04:23 14.6 °C 10.2 °C 1021.9 hPa SE 9.7 km/h 19.3 km/h 75% 0 mm
04:28 14.6 °C 10.2 °C 1021.9 hPa SE 12.9 km/h 19.3 km/h 75% 0 mm
04:33 14.6 °C 10.2 °C 1021.9 hPa SE 9.7 km/h 17.7 km/h 75% 0 mm
04:38 14.6 °C 10.2 °C 1021.9 hPa SE 9.7 km/h 12.9 km/h 75% 0 mm
04:43 14.5 °C 10.1 °C 1021.6 hPa SE 9.7 km/h 14.5 km/h 75% 0 mm
04:48 14.3 °C 10.2 °C 1021.2 hPa SE 16.1 km/h 16.1 km/h 76% 0 mm
04:53 14.4 °C 10 °C 1021.2 hPa SE 12.9 km/h 24.1 km/h 75% 0 mm
04:58 14.3 °C 9.9 °C 1021.2 hPa SE 17.7 km/h 24.1 km/h 75% 0 mm
05:03 14.3 °C 10.2 °C 1021.2 hPa SE 17.7 km/h 24.1 km/h 76% 0 mm
05:08 14.2 °C 10 °C 1020.9 hPa SE 14.5 km/h 20.9 km/h 76% 0 mm
05:13 14.1 °C 9.9 °C 1020.9 hPa SE 11.3 km/h 19.3 km/h 76% 0 mm
05:18 14.1 °C 10.2 °C 1020.9 hPa SE 17.7 km/h 25.7 km/h 77% 0 mm
05:23 14.1 °C 10.1 °C 1020.9 hPa SE 16.1 km/h 22.5 km/h 77% 0 mm
05:29 14.1 °C 10.1 °C 1020.9 hPa ESE 14.5 km/h 27.4 km/h 77% 0 mm
05:34 14 °C 10.1 °C 1020.9 hPa SE 20.9 km/h 24.1 km/h 77% 0 mm
05:39 14 °C 10.1 °C 1020.9 hPa ESE 14.5 km/h 25.7 km/h 77% 0 mm
05:44 14 °C 10.1 °C 1020.5 hPa SE 16.1 km/h 22.5 km/h 77% 0 mm
05:49 14 °C 10.1 °C 1020.5 hPa SE 19.3 km/h 22.5 km/h 77% 0 mm
05:54 13.9 °C 10 °C 1020.5 hPa SE 16.1 km/h 25.7 km/h 77% 0 mm
05:59 13.9 °C 10.2 °C 1020.5 hPa SE 9.7 km/h 22.5 km/h 78% 0 mm
06:04 13.9 °C 10.2 °C 1020.9 hPa SSE 17.7 km/h 20.9 km/h 78% 0 mm
06:09 13.9 °C 10.2 °C 1021.2 hPa SE 19.3 km/h 19.3 km/h 78% 0 mm
06:14 14.1 °C 10.3 °C 1021.2 hPa SE 14.5 km/h 22.5 km/h 78% 0 mm
06:19 14.1 °C 10.2 °C 1020.9 hPa SE 16.1 km/h 22.5 km/h 77% 0 mm
06:24 14.1 °C 10.2 °C 1020.5 hPa SE 19.3 km/h 22.5 km/h 77% 0 mm
06:29 14.2 °C 10.2 °C 1020.5 hPa SE 19.3 km/h 25.7 km/h 77% 0 mm
06:34 14.2 °C 10.3 °C 1020.5 hPa SE 14.5 km/h 24.1 km/h 77% 0 mm
06:39 14.2 °C 10.3 °C 1020.5 hPa SE 16.1 km/h 19.3 km/h 77% 0 mm
06:44 14.3 °C 10.3 °C 1020.9 hPa SE 12.9 km/h 22.5 km/h 77% 0 mm
06:49 14.3 °C 10.5 °C 1020.9 hPa SE 12.9 km/h 17.7 km/h 78% 0 mm
06:54 14.4 °C 10.4 °C 1020.9 hPa SSE 17.7 km/h 25.7 km/h 77% 0 mm
06:59 14.3 °C 10.6 °C 1021.2 hPa SE 11.3 km/h 14.5 km/h 78% 0 mm
07:04 14.2 °C 10.4 °C 1021.2 hPa SSE 14.5 km/h 14.5 km/h 78% 0 mm
07:09 14.3 °C 10.6 °C 1021.2 hPa SSE 9.7 km/h 22.5 km/h 78% 0 mm
07:14 14.4 °C 10.6 °C 1021.2 hPa SSE 14.5 km/h 17.7 km/h 78% 0 mm
07:19 14.4 °C 10.6 °C 1021.2 hPa South 12.9 km/h 17.7 km/h 78% 0 mm
07:24 14.4 °C 10.7 °C 1020.9 hPa SE 16.1 km/h 20.9 km/h 78% 0 mm
07:29 14.6 °C 10.8 °C 1020.5 hPa SE 11.3 km/h 20.9 km/h 78% 0 mm
07:34 14.6 °C 10.8 °C 1020.5 hPa SSE 17.7 km/h 24.1 km/h 78% 0 mm
07:39 14.6 °C 10.8 °C 1020.9 hPa SSE 22.5 km/h 22.5 km/h 78% 0 mm
07:44 14.7 °C 10.9 °C 1020.9 hPa SE 17.7 km/h 27.4 km/h 78% 0 mm
07:49 14.7 °C 10.9 °C 1020.9 hPa SSE 11.3 km/h 17.7 km/h 78% 0 mm
07:54 14.7 °C 10.9 °C 1020.9 hPa ESE 12.9 km/h 19.3 km/h 78% 0 mm
07:59 14.8 °C 11 °C 1020.9 hPa SSE 19.3 km/h 24.1 km/h 78% 0 mm
08:04 14.8 °C 11 °C 1020.2 hPa South 11.3 km/h 22.5 km/h 78% 0 mm
08:09 14.9 °C 11.1 °C 1020.5 hPa ESE 17.7 km/h 25.7 km/h 78% 0 mm
08:14 14.9 °C 11.1 °C 1020.9 hPa SSE 17.7 km/h 25.7 km/h 78% 0 mm
08:19 14.9 °C 11.1 °C 1020.9 hPa SE 12.9 km/h 22.5 km/h 78% 0 mm
08:24 14.9 °C 11.1 °C 1020.5 hPa SSE 19.3 km/h 24.1 km/h 78% 0 mm
08:29 14.9 °C 11.1 °C 1020.5 hPa SE 24.1 km/h 25.7 km/h 78% 0 mm
08:34 15 °C 11.2 °C 1020.9 hPa SSE 22.5 km/h 24.1 km/h 78% 0 mm
08:39 15.1 °C 11.3 °C 1020.9 hPa SE 19.3 km/h 27.4 km/h 78% 0 mm
08:44 15.1 °C 11.3 °C 1020.5 hPa SE 16.1 km/h 25.7 km/h 78% 0 mm
08:50 15.1 °C 11.3 °C 1020.5 hPa SSE 22.5 km/h 30.6 km/h 78% 0 mm
08:55 15.1 °C 11.3 °C 1020.5 hPa SSE 19.3 km/h 25.7 km/h 78% 0 mm
09:00 15.1 °C 11.3 °C 1020.5 hPa SSE 19.3 km/h 25.7 km/h 78% 0 mm
09:05 15.2 °C 11.4 °C 1020.5 hPa SE 17.7 km/h 20.9 km/h 78% 0 mm
09:10 15.3 °C 11.5 °C 1020.5 hPa SE 32.2 km/h 32.2 km/h 78% 0 mm
09:15 15.4 °C 11.6 °C 1020.2 hPa SSE 20.9 km/h 24.1 km/h 78% 0 mm
09:20 15.4 °C 11.6 °C 1019.9 hPa SSE 17.7 km/h 37 km/h 78% 0 mm
09:25 15.5 °C 11.7 °C 1020.2 hPa SE 25.7 km/h 25.7 km/h 78% 0 mm
09:30 15.6 °C 11.7 °C 1020.5 hPa SE 16.1 km/h 27.4 km/h 78% 0 mm
09:35 15.7 °C 11.9 °C 1020.2 hPa SE 9.7 km/h 30.6 km/h 78% 0 mm
09:40 15.9 °C 11.9 °C 1020.5 hPa SE 22.5 km/h 22.5 km/h 77% 0 mm
09:45 15.8 °C 11.8 °C 1020.5 hPa South 8 km/h 27.4 km/h 77% 0 mm
09:50 15.9 °C 11.9 °C 1020.5 hPa SSE 17.7 km/h 30.6 km/h 77% 0 mm
09:55 16 °C 11.9 °C 1020.2 hPa SSE 19.3 km/h 24.1 km/h 77% 0 mm
10:00 16.2 °C 12 °C 1020.2 hPa SE 25.7 km/h 25.7 km/h 76% 0 mm
10:05 16.3 °C 12.1 °C 1020.5 hPa SE 20.9 km/h 24.1 km/h 76% 0 mm
10:10 16.5 °C 12.3 °C 1020.5 hPa South 16.1 km/h 27.4 km/h 76% 0 mm
10:15 16.7 °C 12.3 °C 1020.5 hPa SSE 16.1 km/h 32.2 km/h 75% 0 mm
10:20 16.9 °C 12.5 °C 1020.5 hPa SW 14.5 km/h 19.3 km/h 75% 0 mm
10:25 17.1 °C 12.7 °C 1020.5 hPa SE 17.7 km/h 25.7 km/h 75% 0 mm
10:30 17.4 °C 12.9 °C 1020.5 hPa SSE 17.7 km/h 25.7 km/h 75% 0 mm
10:35 17.8 °C 13.1 °C 1020.5 hPa SE 19.3 km/h 29 km/h 74% 0 mm
10:40 18.1 °C 12.7 °C 1020.2 hPa SE 20.9 km/h 32.2 km/h 71% 0 mm
10:45 18.1 °C 12.9 °C 1020.5 hPa SW 22.5 km/h 29 km/h 72% 0 mm
10:50 18.3 °C 13.4 °C 1020.2 hPa South 16.1 km/h 25.7 km/h 73% 0 mm
10:55 18.5 °C 13.3 °C 1020.5 hPa SSE 14.5 km/h 20.9 km/h 72% 0 mm
11:00 18.3 °C 12.9 °C 1020.5 hPa SSE 19.3 km/h 24.1 km/h 71% 0 mm
11:05 18.2 °C 13.1 °C 1020.2 hPa SE 12.9 km/h 22.5 km/h 72% 0 mm
11:10 17.9 °C 13.1 °C 1020.2 hPa SE 8 km/h 24.1 km/h 73% 0 mm
11:15 17.7 °C 13.1 °C 1019.9 hPa South 8 km/h 30.6 km/h 74% 0 mm
11:20 17.6 °C 13.1 °C 1019.9 hPa SSE 17.7 km/h 30.6 km/h 75% 0 mm
11:25 17.6 °C 13.1 °C 1019.9 hPa South 9.7 km/h 27.4 km/h 75% 0 mm
11:30 17.7 °C 13.4 °C 1019.9 hPa South 9.7 km/h 29 km/h 76% 0 mm
11:35 18.2 °C 13.9 °C 1019.9 hPa SSE 12.9 km/h 17.7 km/h 76% 0 mm
11:36 18.2 °C 13.7 °C 1019.9 hPa SSE 17.7 km/h 17.7 km/h 75% 0 mm
11:41 18.4 °C 13.9 °C 1019.9 hPa SE 8 km/h 20.9 km/h 75% 0 mm
11:46 18.7 °C 13.9 °C 1019.5 hPa South 19.3 km/h 19.3 km/h 74% 0 mm
11:51 18.8 °C 13.7 °C 1019.5 hPa SSE 20.9 km/h 22.5 km/h 72% 0 mm
11:56 19.1 °C 13.7 °C 1019.5 hPa SSW 8 km/h 19.3 km/h 71% 0 mm
12:01 19.2 °C 13.8 °C 1019.5 hPa SW 24.1 km/h 27.4 km/h 71% 0 mm
12:06 19.6 °C 14 °C 1019.2 hPa South 8 km/h 22.5 km/h 70% 0 mm
12:11 19.9 °C 14.3 °C 1019.2 hPa SW 19.3 km/h 29 km/h 70% 0 mm
12:16 19.9 °C 13.8 °C 1019.2 hPa SSE 20.9 km/h 30.6 km/h 68% 0 mm
12:21 19.9 °C 14.1 °C 1018.8 hPa SSE 16.1 km/h 32.2 km/h 69% 0 mm
12:26 19.9 °C 13.9 °C 1018.8 hPa SSE 27.4 km/h 27.4 km/h 68% 0 mm
12:32 19.8 °C 13.7 °C 1018.8 hPa SSE 29 km/h 35.4 km/h 68% 0 mm
12:37 19.7 °C 13.9 °C 1018.8 hPa SW 14.5 km/h 33.8 km/h 69% 0 mm
12:42 19.8 °C 13.9 °C 1018.8 hPa SE 9.7 km/h 35.4 km/h 69% 0 mm
12:47 19.7 °C 13.9 °C 1018.8 hPa SSW 14.5 km/h 29 km/h 69% 0 mm
12:52 19.6 °C 13.7 °C 1018.5 hPa South 19.3 km/h 38.6 km/h 69% 0 mm
12:57 19.5 °C 13.9 °C 1018.5 hPa SE 16.1 km/h 29 km/h 70% 0 mm
13:02 19.6 °C 14 °C 1018.5 hPa SW 22.5 km/h 27.4 km/h 70% 0 mm
13:07 19.7 °C 13.9 °C 1018.2 hPa SE 12.9 km/h 29 km/h 69% 0 mm
13:12 20.1 °C 14.2 °C 1018.2 hPa SSW 11.3 km/h 27.4 km/h 69% 0 mm
13:17 20.4 °C 14.3 °C 1018.2 hPa SSE 22.5 km/h 25.7 km/h 68% 0 mm
13:22 20.9 °C 14.6 °C 1018.2 hPa SSE 24.1 km/h 27.4 km/h 67% 0 mm
13:27 21.1 °C 14.7 °C 1017.8 hPa SSW 17.7 km/h 33.8 km/h 67% 0 mm
13:32 21.1 °C 14.5 °C 1017.8 hPa SSE 9.7 km/h 20.9 km/h 66% 0 mm
13:37 21.1 °C 14.3 °C 1017.8 hPa SSW 27.4 km/h 27.4 km/h 65% 0 mm
13:42 21 °C 14.2 °C 1017.8 hPa SSE 17.7 km/h 37 km/h 65% 0 mm
13:43 21 °C 14.2 °C 1017.8 hPa South 20.9 km/h 37 km/h 65% 0 mm
13:49 21 °C 14.2 °C 1017.5 hPa SSE 25.7 km/h 25.7 km/h 65% 0 mm
13:54 20.9 °C 14.3 °C 1017.5 hPa SSE 17.7 km/h 33.8 km/h 66% 0 mm
13:59 20.9 °C 14.1 °C 1017.5 hPa South 29 km/h 29 km/h 65% 0 mm
14:04 20.9 °C 14.1 °C 1017.5 hPa South 16.1 km/h 25.7 km/h 65% 0 mm
14:09 20.9 °C 14.3 °C 1017.5 hPa SSE 24.1 km/h 25.7 km/h 66% 0 mm
14:14 20.9 °C 14.1 °C 1017.2 hPa SSE 19.3 km/h 27.4 km/h 65% 0 mm
14:19 20.9 °C 14.3 °C 1017.2 hPa SSE 9.7 km/h 22.5 km/h 66% 0 mm
14:24 21 °C 14.2 °C 1017.2 hPa SSE 14.5 km/h 24.1 km/h 65% 0 mm
14:29 21 °C 14.7 °C 1017.2 hPa SW 12.9 km/h 24.1 km/h 67% 0 mm
14:34 20.9 °C 14.3 °C 1017.2 hPa SSW 11.3 km/h 24.1 km/h 66% 0 mm
14:39 20.8 °C 14.5 °C 1017.2 hPa SW 9.7 km/h 20.9 km/h 67% 0 mm
14:44 20.7 °C 14.6 °C 1017.2 hPa South 11.3 km/h 17.7 km/h 68% 0 mm
14:49 20.5 °C 14.6 °C 1017.2 hPa SSE 16.1 km/h 17.7 km/h 69% 0 mm
14:54 20.2 °C 14.8 °C 1016.8 hPa South 11.3 km/h 19.3 km/h 71% 0 mm
14:59 19.8 °C 14.8 °C 1017.2 hPa SSW 6.4 km/h 17.7 km/h 73% 0 mm
15:04 19.6 °C 14.8 °C 1017.2 hPa SSW 6.4 km/h 17.7 km/h 74% 0 mm
15:09 19.3 °C 15.2 °C 1017.2 hPa SSW 9.7 km/h 16.1 km/h 77% 0 mm
15:14 18.9 °C 15.2 °C 1017.2 hPa SSW 8 km/h 12.9 km/h 79% 0 mm
15:19 18.5 °C 15.4 °C 1016.8 hPa South 6.4 km/h 12.9 km/h 82% 4.32 mm
15:24 18.2 °C 15.6 °C 1017.2 hPa SW 6.4 km/h 8 km/h 85% 3.56 mm
15:29 17.9 °C 15.7 °C 1016.8 hPa SSW 3.2 km/h 8 km/h 87% 1.78 mm
15:34 17.8 °C 15.8 °C 1016.8 hPa SSW 3.2 km/h 4.8 km/h 88% 1.02 mm
15:39 17.7 °C 15.7 °C 1017.2 hPa SSE 4.8 km/h 8 km/h 88% 0 mm
15:44 17.6 °C 15.6 °C 1016.8 hPa SSW 6.4 km/h 6.4 km/h 88% 4.06 mm
15:49 17.6 °C 15.8 °C 1016.8 hPa SSE 4.8 km/h 8 km/h 89% 2.03 mm
15:54 17.6 °C 15.7 °C 1016.5 hPa South 4.8 km/h 8 km/h 89% 1.27 mm
15:59 17.7 °C 15.7 °C 1016.5 hPa SSW 6.4 km/h 9.7 km/h 88% 0 mm
16:04 17.7 °C 15.7 °C 1016.5 hPa SSE 8 km/h 11.3 km/h 88% 0 mm
16:09 17.7 °C 15.7 °C 1016.5 hPa South 8 km/h 9.7 km/h 88% 0 mm
16:14 17.7 °C 15.9 °C 1016.1 hPa South 8 km/h 11.3 km/h 89% 0 mm
16:19 17.8 °C 15.9 °C 1016.1 hPa South 9.7 km/h 11.3 km/h 89% 0 mm
16:24 17.8 °C 15.8 °C 1016.1 hPa SE 6.4 km/h 14.5 km/h 88% 0 mm
16:28 17.9 °C 15.9 °C 1016.1 hPa SSE 12.9 km/h 12.9 km/h 88% 0 mm
16:33 17.9 °C 15.7 °C 1016.1 hPa SSE 8 km/h 9.7 km/h 87% 0 mm
16:38 18 °C 15.8 °C 1016.1 hPa SSE 11.3 km/h 12.9 km/h 87% 0 mm
16:43 18.1 °C 15.7 °C 1016.1 hPa SSW 8 km/h 12.9 km/h 86% 0 mm
16:48 18.2 °C 15.8 °C 1016.1 hPa South 6.4 km/h 12.9 km/h 86% 0 mm
16:53 18.2 °C 15.8 °C 1016.1 hPa SSW 11.3 km/h 11.3 km/h 86% 0 mm
16:58 18.3 °C 15.7 °C 1016.1 hPa South 9.7 km/h 16.1 km/h 85% 0 mm
17:03 18.3 °C 15.7 °C 1016.1 hPa SSE 8 km/h 11.3 km/h 85% 0 mm
17:08 18.2 °C 15.8 °C 1016.1 hPa South 8 km/h 8 km/h 86% 0 mm
17:14 18.2 °C 15.8 °C 1016.1 hPa South 6.4 km/h 9.7 km/h 86% 0 mm
17:19 18.3 °C 15.7 °C 1016.1 hPa SSE 3.2 km/h 11.3 km/h 85% 0 mm
17:24 18.3 °C 15.7 °C 1016.1 hPa South 8 km/h 9.7 km/h 85% 0 mm
17:29 18.4 °C 15.8 °C 1016.1 hPa South 4.8 km/h 8 km/h 85% 0 mm
17:34 18.3 °C 15.8 °C 1016.1 hPa SSW 3.2 km/h 8 km/h 85% 0 mm
17:39 18.3 °C 15.8 °C 1016.5 hPa WNW 6.4 km/h 9.7 km/h 85% 0 mm
17:44 18 °C 15.8 °C 1017.2 hPa NW 17.7 km/h 20.9 km/h 87% 0 mm
17:49 17.1 °C 14.8 °C 1017.5 hPa NNW 16.1 km/h 33.8 km/h 86% 0 mm
17:54 16.3 °C 14.4 °C 1017.8 hPa NW 20.9 km/h 20.9 km/h 89% 1.27 mm
17:59 15.7 °C 14.3 °C 1016.8 hPa NE 20.9 km/h 33.8 km/h 91% 9.91 mm
18:04 15.4 °C 14.1 °C 1017.8 hPa North 9.7 km/h 29 km/h 92% 14.22 mm
18:09 15.1 °C 13.8 °C 1017.2 hPa NNW 25.7 km/h 29 km/h 92% 8.89 mm
18:14 14.9 °C 13.6 °C 1017.5 hPa North 20.9 km/h 25.7 km/h 92% 4.57 mm
18:20 14.8 °C 13.7 °C 1017.5 hPa NNE 12.9 km/h 22.5 km/h 93% 54.61 mm
18:25 14.7 °C 13.7 °C 1018.2 hPa NNW 12.9 km/h 17.7 km/h 94% 9.14 mm
18:30 14.7 °C 13.7 °C 1018.2 hPa North 12.9 km/h 16.1 km/h 94% 9.14 mm
18:35 14.7 °C 13.7 °C 1017.8 hPa North 9.7 km/h 11.3 km/h 94% 6.1 mm
18:40 14.7 °C 13.7 °C 1018.2 hPa NW 11.3 km/h 12.9 km/h 94% 3.56 mm
18:45 14.7 °C 13.7 °C 1018.2 hPa North 9.7 km/h 16.1 km/h 94% 12.95 mm
18:48 14.7 °C 13.7 °C 1018.5 hPa NW 12.9 km/h 16.1 km/h 94% 8.89 mm
18:53 14.7 °C 13.9 °C 1019.5 hPa NW 16.1 km/h 20.9 km/h 95% 13.21 mm
18:58 14.6 °C 13.8 °C 1018.5 hPa North 14.5 km/h 25.7 km/h 95% 33.02 mm
19:03 14.4 °C 13.5 °C 1018.8 hPa NNW 12.9 km/h 29 km/h 94% 11.94 mm
19:08 14.3 °C 13.3 °C 1018.5 hPa NNW 19.3 km/h 24.1 km/h 94% 4.06 mm
19:13 14.1 °C 13.2 °C 1018.8 hPa NW 27.4 km/h 27.4 km/h 94% 2.54 mm
19:19 13.8 °C 12.8 °C 1019.9 hPa NW 22.5 km/h 25.7 km/h 94% 1.52 mm
19:24 13.5 °C 12.6 °C 1020.5 hPa NNW 27.4 km/h 38.6 km/h 94% 11.94 mm
19:29 12.8 °C 11.7 °C 1020.2 hPa NNW 35.4 km/h 37 km/h 93% 5.59 mm
19:34 11.9 °C 10.7 °C 1020.5 hPa North 29 km/h 43.5 km/h 92% 3.3 mm
19:39 11.4 °C 10.3 °C 1020.5 hPa WNW 16.1 km/h 35.4 km/h 93% 1.52 mm
19:44 11.2 °C 10.2 °C 1021.2 hPa North 25.7 km/h 38.6 km/h 94% 1.27 mm
19:49 10.9 °C 9.9 °C 1021.2 hPa NNW 22.5 km/h 30.6 km/h 94% 4.83 mm
19:54 10.3 °C 9.3 °C 1020.5 hPa NNW 27.4 km/h 33.8 km/h 93% 5.08 mm
19:59 9.9 °C 9 °C 1020.5 hPa NNE 29 km/h 29 km/h 94% 5.08 mm
20:04 9.8 °C 8.9 °C 1020.5 hPa NNE 14.5 km/h 29 km/h 94% 4.32 mm
20:09 9.7 °C 8.9 °C 1020.5 hPa NNE 17.7 km/h 29 km/h 95% 3.05 mm
20:15 9.7 °C 8.9 °C 1020.2 hPa NNE 20.9 km/h 32.2 km/h 95% 2.54 mm
20:20 9.5 °C 8.7 °C 1020.2 hPa NNE 19.3 km/h 24.1 km/h 95% 3.05 mm
20:25 9.2 °C 8.3 °C 1020.5 hPa NNE 12.9 km/h 25.7 km/h 94% 2.79 mm
20:30 8.9 °C 8.1 °C 1020.5 hPa North 12.9 km/h 25.7 km/h 94% 1.78 mm
20:35 8.8 °C 7.9 °C 1020.5 hPa NNE 16.1 km/h 25.7 km/h 94% 2.29 mm
20:36 8.7 °C 7.8 °C 1020.9 hPa North 9.7 km/h 25.7 km/h 94% 2.29 mm
20:41 8.6 °C 7.7 °C 1021.2 hPa NNE 17.7 km/h 25.7 km/h 94% 3.56 mm
20:46 8.6 °C 7.8 °C 1021.6 hPa NNE 6.4 km/h 17.7 km/h 95% 4.83 mm
20:51 8.5 °C 7.7 °C 1021.6 hPa NNE 6.4 km/h 17.7 km/h 95% 5.08 mm
20:56 8.4 °C 7.7 °C 1021.6 hPa NNE 9.7 km/h 19.3 km/h 95% 4.57 mm
21:01 8.4 °C 7.7 °C 1021.9 hPa NNE 6.4 km/h 12.9 km/h 95% 5.59 mm
21:06 8.4 °C 7.7 °C 1021.6 hPa NE 16.1 km/h 20.9 km/h 95% 5.33 mm
21:11 8.4 °C 7.7 °C 1021.9 hPa North 14.5 km/h 14.5 km/h 95% 7.87 mm
21:17 8.4 °C 7.7 °C 1021.9 hPa North 6.4 km/h 17.7 km/h 95% 5.84 mm
21:22 8.5 °C 7.7 °C 1021.9 hPa North 12.9 km/h 19.3 km/h 95% 4.06 mm
21:27 8.5 °C 7.7 °C 1021.9 hPa NNW 17.7 km/h 19.3 km/h 95% 5.08 mm
21:32 8.5 °C 7.7 °C 1021.6 hPa North 12.9 km/h 17.7 km/h 95% 5.84 mm
21:37 8.5 °C 7.9 °C 1021.6 hPa NNW 16.1 km/h 19.3 km/h 96% 5.33 mm
21:42 8.4 °C 7.8 °C 1021.2 hPa North 9.7 km/h 17.7 km/h 96% 4.06 mm
21:47 8.4 °C 7.8 °C 1021.2 hPa NNE 16.1 km/h 22.5 km/h 96% 4.83 mm
21:52 8.4 °C 7.6 °C 1020.9 hPa NE 17.7 km/h 19.3 km/h 95% 3.81 mm
21:57 8.4 °C 7.8 °C 1020.9 hPa NNE 16.1 km/h 20.9 km/h 96% 4.32 mm
22:02 8.4 °C 7.8 °C 1021.2 hPa NNE 6.4 km/h 17.7 km/h 96% 4.32 mm
22:07 8.4 °C 7.8 °C 1021.2 hPa NNE 8 km/h 17.7 km/h 96% 3.3 mm
22:12 8.4 °C 7.8 °C 1021.6 hPa NNE 9.7 km/h 16.1 km/h 96% 4.57 mm
22:17 8.4 °C 7.8 °C 1021.6 hPa NNE 4.8 km/h 11.3 km/h 96% 3.3 mm
22:22 8.4 °C 7.8 °C 1021.6 hPa North 11.3 km/h 12.9 km/h 96% 3.3 mm
22:27 8.5 °C 7.9 °C 1021.2 hPa NE 14.5 km/h 16.1 km/h 96% 3.3 mm
22:32 8.6 °C 7.9 °C 1021.2 hPa NE 14.5 km/h 16.1 km/h 96% 3.81 mm
22:37 8.6 °C 7.9 °C 1021.2 hPa NNE 14.5 km/h 14.5 km/h 96% 2.79 mm
22:42 8.6 °C 8 °C 1021.6 hPa North 8 km/h 14.5 km/h 96% 2.79 mm
22:47 8.6 °C 8 °C 1021.9 hPa North 8 km/h 9.7 km/h 96% 2.79 mm
22:52 8.6 °C 8 °C 1021.9 hPa North 11.3 km/h 12.9 km/h 96% 2.79 mm
22:58 8.6 °C 7.9 °C 1022.2 hPa NNW 6.4 km/h 14.5 km/h 96% 2.79 mm
23:03 8.6 °C 7.9 °C 1022.2 hPa North 11.3 km/h 17.7 km/h 96% 2.03 mm
23:08 8.5 °C 7.9 °C 1022.9 hPa NNW 14.5 km/h 19.3 km/h 96% 5.08 mm
23:13 8.3 °C 7.7 °C 1023.2 hPa NNW 24.1 km/h 24.1 km/h 96% 4.83 mm
23:18 8.1 °C 7.3 °C 1023.2 hPa NNW 12.9 km/h 35.4 km/h 95% 3.81 mm
23:23 7.8 °C 7.1 °C 1023.2 hPa NNW 9.7 km/h 32.2 km/h 95% 3.56 mm
23:28 7.5 °C 6.8 °C 1023.2 hPa NNE 20.9 km/h 30.6 km/h 95% 3.56 mm
23:33 7.2 °C 6.4 °C 1023.2 hPa NW 12.9 km/h 22.5 km/h 95% 3.81 mm
23:38 7 °C 6.3 °C 1023.6 hPa NNW 17.7 km/h 19.3 km/h 95% 2.03 mm
23:43 6.8 °C 6.1 °C 1023.6 hPa NNW 11.3 km/h 19.3 km/h 95% 3.05 mm
23:48 6.4 °C 5.7 °C 1023.2 hPa NNE 11.3 km/h 22.5 km/h 95% 3.81 mm
23:53 6.2 °C 5.4 °C 1023.2 hPa NNE 6.4 km/h 16.1 km/h 95% 5.33 mm
23:58 6 °C 5.3 °C 1023.2 hPa NW 9.7 km/h 19.3 km/h 95% 7.87 mm
Compliments of Weather Underground